Regional Weather Roundup
Issued by NWS Newport/Morehead, NC

Current Version | Previous Version | Graphics & Text | Print | Product List | Glossary Off
Versions: 1 2 3 4 5 6 7 8 9 10 11 12 13 14 15 16 17 18 19 20 21 22 23 24 25 26 27 28 29 30 31 32 33 34 35 36 37 38 39 40 41 42 43 44 45 46 47 48 49 50

000
ASUS42 KMHX 290124
RWRMHX
WEATHER ROUNDUP FOR EASTERN NORTH CAROLINA
NATIONAL WEATHER SERVICE NEWPORT/MOREHEAD CITY NC
900 PM EDT SAT MAR 28 2015

NOTE: "FAIR" INDICATES FEW OR NO CLOUDS BELOW 12,000 FEET
WITH NO SIGNIFICANT WEATHER AND/OR OBSTRUCTIONS TO VISIBILITY

NCZ015>017-031-032-045>047-102-103-290200-
NORTH COAST

CITY           SKY/WX    TMP DP  RH WIND       PRES   REMARKS
EDENTON        CLEAR     35  26  70 CALM      30.18R
ELIZABETH CITY PTCLDY    35  21  56 W3        30.16R
KITTY HAWK     CLEAR     38  19  45 NW9G16    30.14R
MANTEO         PTCLDY    39  20  47 N10G17    30.17R

$$

NCZ045>047-081-094-103-104-290200-
CENTRAL COAST

CITY           SKY/WX    TMP DP  RH WIND       PRES   REMARKS
FRISCO         CLEAR     39  25  57 VRB5      30.16R
SWANQUARTER      N/A     36 N/A N/A VRB3      30.15R

$$

NCZ095-097-098-100-101-290200-
SOUTHERN COAST

CITY           SKY/WX    TMP DP  RH WIND       PRES   REMARKS
BEAUFORT       CLEAR     42  26  53 N10       30.16R
CEDAR ISLAND     N/A     43 N/A N/A NW18G24   30.21R
JACKSONVILLE   CLEAR     42  23  46 N7        30.16R
PINEY ISLAND   CLEAR    N/A N/A N/A NW10      30.16R
WILMINGTON     CLEAR     44  26  49 N9        30.16R


$$

NCZ011>013-027>030-043-044-078>080-089-090>093-098-290200-
COASTAL PLAIN

CITY           SKY/WX    TMP DP  RH WIND       PRES   REMARKS
AHOSKIE        CLEAR     32  23  68 CALM      30.19R
CLINTON        CLEAR     38  28  68 CALM      30.19R
ELIZABETHTOWN  CLEAR     40  27  58 CALM      30.17R
GOLDSBORO      CLEAR     41  22  48 NW1       30.16R
GREENVILLE     CLEAR     37  21  52 N7        30.20R
HAVELOCK       CLEAR     43  19  38 NW14      30.17R
KENANSVILLE    PTCLDY    36  26  67 CALM      30.18R
KINSTON        CLEAR     34  25  69 CALM      30.18R
NEW BERN       CLEAR     40  21  46 NW7       30.18R
RICHLANDS      CLEAR     37  25  60 N5        30.18R
ROCKY MOUNT    CLEAR     39  14  36 N8        30.19R
WASHINGTON     CLEAR     36  23  59 N3        30.19R
WHITEVILLE     CLEAR     43  25  49 CALM      30.17R

$$

AMZ130-135-150-152-154-156-158-170-250-252-270-ANZ085-086-088-633-658-670-290200-
MARINE OBSERVATIONS

STATION/POSITION TIME  TEMP    WIND        PRES    WAVE   SWELL
                       AIR SEA DIR/SP/G            HT/PER HT/PER
                 (UTC) (F)     (DEG/KT/KT) (MB)    (FT/S) (FT/S)
CHESAPEAKE LIGHT 0100   36     340/ 26/ 27 1021.7
64 E VA BEACH    0050   39 57  330/ 19/ 25 1019.7    6/ 6   3/ 9
DUCK             0100   39 42  310/ 13/ 16 1020.2
2 E DUCK         0011      41                N/A     4/ 9   2/11
10 NE DUCK       NOT AVBL
OREGON INLET     0100   37 46  340/  6/  9 1021.2
HATTERAS CG      0100   42 54  350/ 14/ 24 1021.5
CAPE LOOKOUT     0100   45     350/ 17/ 20 1020.8
BEAUFORT LAB     0100   44 56  350/ 10/ 15 1020.4
27 SE WRIGHTSVLE 0100   48 65  360/ 19/ 21 1021.8
5 SE WRIGHTSVLE  0100   49 56   10/ 17/ 21 1021.0
225 S CAPE HAT   0050   60 68  320/ 19/ 27 1018.4   10/ 9
41 SE CHARLESTON 0050   56 68  310/ 14/ 19 1020.1    4/ 9   2/ 9

$$


USA.gov is the U.S. government's official web portal to all federal, state and local government web resources and services.